Orbital Elements at Epoch 2459200.5 (2020-Dec-17.0) TDB
Reference: JPL 18 (heliocentric ecliptic J2000)
Element | Value | Uncertainty (1-sigma) | Units |
e | .07003899809720976 | 5.2351e-08 | |
a | 2.633565375634044 | 1.9127e-08 | au |
q | 2.449113095301134 | 1.4165e-07 | au |
i | 14.24878219259434 | 5.5896e-06 | deg |
node | 238.1112789876821 | 2.172e-05 | deg |
peri | 320.945187590055 | 4.3338e-05 | deg |
M | 313.7501155647887 | 3.7674e-05 | deg |
tp | 2459401.050031087219 (2021-Jul-05.55003109) | 0.00016344 | TDB |
period | 1561.041980386714 4.27 | 1.7006e-05 4.656e-08 | d yr |
n | .2306151945451319 | 2.5124e-09 | deg/d |
Q | 2.818017655966955 | 2.0467e-08 | au |
|
| | Orbit Determination Parameters
Additional Information
|